TimeEDT,TemperatureF,Dew PointF,Humidity,Sea Level PressureIn,VisibilityMPH,Wind Direction,Wind SpeedMPH,Gust SpeedMPH,PrecipitationIn,Events,Conditions,WindDirDegrees,DateUTC
12:53 AM,59.0,55.9,90,30.12,10.0,Calm,Calm,-,N/A,,Clear,0,2013-09-05 04:53:00
1:53 AM,59.0,55.9,90,30.11,10.0,Calm,Calm,-,N/A,,Clear,0,2013-09-05 05:53:00
2:53 AM,57.9,55.0,90,30.11,9.0,Calm,Calm,-,0.01,,Clear,0,2013-09-05 06:53:00
3:53 AM,57.9,55.0,90,30.11,10.0,Calm,Calm,-,N/A,,Clear,0,2013-09-05 07:53:00
4:53 AM,57.0,55.0,93,30.12,10.0,Calm,Calm,-,N/A,,Clear,0,2013-09-05 08:53:00
5:53 AM,57.9,55.0,90,30.10,10.0,South,3.5,-,N/A,,Clear,180,2013-09-05 09:53:00
6:53 AM,57.9,55.0,90,30.12,10.0,South,3.5,-,N/A,,Clear,180,2013-09-05 10:53:00
7:53 AM,59.0,55.9,90,30.13,10.0,SSW,4.6,-,N/A,,Clear,200,2013-09-05 11:53:00
8:53 AM,63.0,57.9,84,30.14,10.0,West,4.6,-,N/A,,Clear,270,2013-09-05 12:53:00
9:53 AM,66.9,59.0,76,30.15,10.0,WSW,6.9,-,N/A,,Mostly Cloudy,240,2013-09-05 13:53:00
10:53 AM,68.0,59.0,73,30.16,10.0,NW,6.9,-,N/A,,Mostly Cloudy,310,2013-09-05 14:53:00
11:53 AM,72.0,61.0,68,30.15,10.0,Variable,3.5,-,N/A,,Mostly Cloudy,0,2013-09-05 15:53:00
12:02 PM,71.6,60.8,69,30.18,10.0,Variable,4.6,-,N/A,,Scattered Clouds,0,2013-09-05 16:02:00
12:38 PM,73.4,60.8,65,30.17,10.0,NW,8.1,-,N/A,,Mostly Cloudy,310,2013-09-05 16:38:00
12:49 PM,73.4,60.8,65,30.17,10.0,NNW,8.1,-,N/A,,Mostly Cloudy,340,2013-09-05 16:49:00
12:53 PM,73.0,60.1,64,30.14,10.0,NW,9.2,-,N/A,,Mostly Cloudy,320,2013-09-05 16:53:00
1:53 PM,75.9,59.0,56,30.13,10.0,NW,8.1,-,N/A,,Mostly Cloudy,310,2013-09-05 17:53:00
2:53 PM,75.0,60.1,60,30.12,10.0,North,4.6,-,N/A,,Mostly Cloudy,360,2013-09-05 18:53:00
3:53 PM,77.0,57.0,50,30.10,10.0,WNW,8.1,-,N/A,,Scattered Clouds,300,2013-09-05 19:53:00
4:53 PM,78.1,57.9,50,30.10,10.0,WNW,10.4,-,N/A,,Clear,300,2013-09-05 20:53:00
5:53 PM,75.0,55.9,51,30.11,10.0,NNW,9.2,-,N/A,,Mostly Cloudy,330,2013-09-05 21:53:00
6:53 PM,73.0,55.9,55,30.12,10.0,NNW,6.9,-,N/A,,Scattered Clouds,330,2013-09-05 22:53:00
7:53 PM,68.0,55.9,65,30.12,10.0,North,4.6,-,N/A,,Clear,360,2013-09-05 23:53:00
8:53 PM,64.9,57.0,75,30.14,10.0,Calm,Calm,-,N/A,,Clear,0,2013-09-06 00:53:00
9:53 PM,61.0,57.0,87,30.15,10.0,Calm,Calm,-,N/A,,Clear,0,2013-09-06 01:53:00
10:53 PM,61.0,55.9,83,30.17,10.0,Calm,Calm,-,N/A,,Clear,0,2013-09-06 02:53:00
11:53 PM,59.0,52.0,78,30.17,10.0,NNE,5.8,-,N/A,,Clear,30,2013-09-06 03:53:00